Location: Star Hoppers Observatory
(42.7905°N, 83.6127°W)
Time: 07:05:49
(UTC-05:00)

Amateur Radio Satellites - All Passes

Search period start: 28 January 2015 06:35
Search period end: 29 January 2015 06:35
Location: Star Hoppers Observatory, 42.7905°N, 83.6127°W

Satellite Date Start Highest point End Downlink Frequencies (MHz)
Time Altitude Azimuth
STRAND 1 28 Jan 06:37:54 06:42:59 89° 86° (E) 06:48:09 437.568
Cubesat XI-IV 28 Jan 06:55:24 07:00:47 72° 102° (ESE) 07:06:10 437.490
DANDE 28 Jan 07:03:22 07:09:39 22° 302° (WNW) 07:15:44 436.750
CUBESAT XI-V 28 Jan 07:04:22 07:08:37 36° 264° (W) 07:12:52 437.345
RS-15 28 Jan 07:04:50 07:15:33 57° 314° (NW) 07:26:24 29.354- 29.394
CUTE-I 28 Jan 07:15:49 07:21:13 78° 287° (WNW) 07:26:35 437.470
AO-7 28 Jan 07:18:34 07:24:14 20° 310° (NW) 07:29:35 29.400- 29.500
PCSat 28 Jan 07:25:13 07:28:12 14° 325° (NW) 07:31:03 145.827
CUSAT 1 28 Jan 07:45:54 07:47:15 10° 312° (NW) 07:47:58 437.405
YUBILEINY 28 Jan 07:52:48 08:01:33 71° 266° (W) 08:10:15 435.215
BRITE-PL 28 Jan 08:10:09 08:14:14 21° 88° (E) 08:18:22 437.365/2234.400
GOMX 1 28 Jan 08:12:58 08:15:42 14° 85° (E) 08:18:40 467.674
STRAND 1 28 Jan 08:21:39 08:23:02 11° 274° (W) 08:24:05 437.568
DOVE 4 28 Jan 08:31:03 08:33:48 15° 86° (E) 08:36:44 437.250
Cubesat XI-IV 28 Jan 08:36:54 08:40:23 17° 299° (WNW) 08:43:39 437.490
HO-68 28 Jan 08:40:04 08:46:15 32° 94° (E) 08:52:33 435.675
COMPASS 1 28 Jan 08:41:11 08:43:30 15° 90° (E) 08:45:57 437.405
VERMONT LUNAR 28 Jan 08:42:21 08:43:44 12° 149° (SSE) 08:45:11 437.305
CANX-2 28 Jan 08:50:44 08:54:27 29° 95° (E) 08:58:10 2200.000
CUTE-I 28 Jan 08:58:33 09:00:31 12° 302° (WNW) 09:02:12 437.470
UNISAT 6 28 Jan 08:58:35 09:00:43 13° 62° (ENE) 09:03:04 437.425
AAUSAT CUBESAT 2 28 Jan 09:07:35 09:11:01 25° 94° (E) 09:14:30 437.432
DELFI C3 28 Jan 09:12:13 09:12:38 10° 87° (E) 09:13:19 145.870
Oscar 11 28 Jan 09:13:09 09:15:30 15° 89° (E) 09:18:02 145.826/435.025
CUTE 1.7 + AOD 2 28 Jan 09:14:48 09:18:56 49° 99° (E) 09:23:02 437.475
RS-15 28 Jan 09:22:20 09:31:04 26° 345° (NNW) 09:39:52 29.354- 29.394
POPSAT HIP 1 28 Jan 09:29:13 09:31:28 15° 64° (ENE) 09:33:54 437.405
ANTELSAT 28 Jan 09:32:23 09:36:20 28° 68° (ENE) 09:40:22 437.575/2403.000
DUCHIFAT 1 28 Jan 09:32:24 09:34:50 15° 64° (ENE) 09:37:25 145.980
PHONESAT 2.4 28 Jan 09:33:03 09:35:21 16° 151° (SSE) 09:37:42 2401.200-2431.200
TIGRISAT 28 Jan 09:40:37 09:44:46 32° 69° (ENE) 09:48:59 435.000
CUBEBUG 2 28 Jan 09:46:34 09:50:19 25° 92° (E) 09:54:03 437.445
SEEDS 28 Jan 09:47:06 09:51:19 83° 284° (WNW) 09:55:30 437.485
UKube-1 28 Jan 09:47:19 09:50:25 19° 92° (E) 09:53:37 .
BRITE-PL 28 Jan 09:47:34 09:53:12 59° 287° (WNW) 09:58:36 437.365/2234.400
GOMX 1 28 Jan 09:49:05 09:54:35 77° 285° (WNW) 09:59:48 467.674
YUBILEINY 28 Jan 09:53:01 09:56:56 13° 285° (WNW) 10:00:12 435.215
ZACube-1 28 Jan 09:59:26 10:02:59 23° 93° (E) 10:06:31 437.345
CINEMA 3 28 Jan 10:02:42 10:07:35 64° 100° (E) 10:12:14 145.822/145.860
NANOSAT C BR1 28 Jan 10:05:08 10:08:56 33° 70° (ENE) 10:12:49 145.865
DX 1 28 Jan 10:06:06 10:10:02 32° 96° (E) 10:14:00 434.975-435.025
DOVE 4 28 Jan 10:06:59 10:12:15 70° 285° (WNW) 10:17:13 437.250
FUNcube-1 28 Jan 10:11:33 10:15:29 31° 95° (E) 10:19:21 145.935
HUMSAT D 28 Jan 10:12:05 10:14:50 17° 90° (E) 10:17:40 437.325/437.525
BEESAT 2 28 Jan 10:14:45 10:16:45 13° 36° (NE) 10:18:52 435.950
COMPASS 1 28 Jan 10:15:32 10:19:34 47° 287° (WNW) 10:23:33 437.405
VERMONT LUNAR 28 Jan 10:18:02 10:21:18 38° 164° (SSE) 10:24:36 437.305
QB50P2 28 Jan 10:18:26 10:22:31 46° 73° (ENE) 10:26:41 145.880/145.840
AISAT 28 Jan 10:25:30 10:28:50 21° 92° (E) 10:32:16 437.250
CANX-2 28 Jan 10:26:49 10:30:18 25° 292° (WNW) 10:33:43 2200.000
HO-68 28 Jan 10:27:23 10:34:18 52° 293° (WNW) 10:41:08 435.675
QB50P1 28 Jan 10:28:04 10:32:15 59° 74° (ENE) 10:36:31 145.935-145.965
UWE-3 28 Jan 10:28:37 10:33:07 58° 100° (E) 10:37:27 435.000/436.395/437.385
BEESAT 3 28 Jan 10:29:29 10:32:23 18° 41° (NE) 10:35:21 437.485
UNISAT 6 28 Jan 10:32:16 10:36:59 76° 258° (WSW) 10:41:43 437.425
POLYITAN 1 28 Jan 10:41:57 10:46:15 85° 76° (ENE) 10:50:37 437.675
AAUSAT CUBESAT 2 28 Jan 10:43:07 10:46:41 27° 291° (WNW) 10:50:11 437.432
DELFI C3 28 Jan 10:44:23 10:48:25 64° 286° (WNW) 10:52:24 145.870
BUGSAT 1 28 Jan 10:45:58 10:50:02 71° 75° (ENE) 10:54:12 437.445
Oscar 11 28 Jan 10:47:52 10:52:04 51° 287° (WNW) 10:56:14 145.826/435.025
CUTE 1.7 + AOD 2 28 Jan 10:51:55 10:54:31 16° 295° (WNW) 10:56:58 437.475
VELOX 1 28 Jan 10:53:46 10:57:59 39° 98° (E) 11:02:12 145.980
AIST 1 28 Jan 11:02:27 11:05:22 19° 88° (E) 11:08:25
POPSAT HIP 1 28 Jan 11:02:45 11:06:58 57° 260° (W) 11:11:14 437.405
CUBEBUG 1 28 Jan 11:06:05 11:09:33 22° 93° (E) 11:13:05 437.445
DUCHIFAT 1 28 Jan 11:06:08 11:10:19 53° 260° (W) 11:14:31 145.980
ANTELSAT 28 Jan 11:08:47 11:13:04 33° 264° (W) 11:17:18 437.575/2403.000
PHONESAT 2.4 28 Jan 11:09:58 11:13:27 45° 166° (SSE) 11:16:56 2401.200-2431.200
SO-50 28 Jan 11:11:52 11:16:25 74° 122° (ESE) 11:21:09 436.795
TIGRISAT 28 Jan 11:17:29 11:21:34 28° 266° (W) 11:25:34 435.000
UKube-1 28 Jan 11:22:41 11:26:47 40° 289° (WNW) 11:30:51 .
CUBEBUG 2 28 Jan 11:22:58 11:27:07 33° 291° (WNW) 11:31:05 437.445
GOMX 1 28 Jan 11:29:46 11:31:49 12° 302° (WNW) 11:33:34 467.674
50 SAT 28 Jan 11:33:10 11:37:15 78° 285° (WNW) 11:41:15 437.505
ZACube-1 28 Jan 11:35:26 11:39:28 33° 290° (WNW) 11:43:21 437.345
TISAT 1 28 Jan 11:38:46 11:40:00 11° 88° (E) 11:41:30 437.305
RS-15 28 Jan 11:39:16 11:48:18 27° 20° (NNE) 11:57:47 29.354- 29.394
CINEMA 3 28 Jan 11:41:15 11:44:16 16° 298° (WNW) 11:47:04 145.822/145.860
NANOSAT C BR1 28 Jan 11:41:29 11:44:54 22° 267° (W) 11:48:16 145.865
AIST 2 28 Jan 11:41:38 11:45:30 32° 47° (NE) 11:49:20 435.215
DX 1 28 Jan 11:42:33 11:46:12 25° 293° (WNW) 11:49:45 434.975-435.025
HUMSAT D 28 Jan 11:46:52 11:50:54 42° 288° (WNW) 11:54:51 437.325/437.525
FUNcube-1 28 Jan 11:48:02 11:51:45 26° 292° (WNW) 11:55:18 145.935
DOVE 4 28 Jan 11:48:29 11:49:05 10° 303° (WNW) 11:49:23 437.250
BEESAT 2 28 Jan 11:51:29 11:55:41 84° 56° (NE) 11:59:50 435.950
VERMONT LUNAR 28 Jan 11:55:45 11:59:12 60° 180° (S) 12:02:41 437.305
QB50P2 28 Jan 11:56:01 11:58:46 16° 270° (W) 12:01:23 145.880/145.840
GONETS M04 28 Jan 11:58:54 12:06:35 35° 68° (ENE) 12:14:24
ESTCUBE 1 28 Jan 12:00:28 12:05:01 89° 102° (ESE) 12:09:34 437.505/2401.250
AISAT 28 Jan 12:01:25 12:05:40 40° 289° (WNW) 12:09:52 437.250
UWE-3 28 Jan 12:06:30 12:09:12 15° 297° (WNW) 12:11:42 435.000/436.395/437.385
QB50P1 28 Jan 12:06:36 12:08:38 13° 272° (W) 12:10:27 145.935-145.965
BEESAT 3 28 Jan 12:06:49 12:10:56 59° 240° (WSW) 12:14:58 437.485
HO-68 28 Jan 12:18:46 12:20:35 11° 312° (NW) 12:21:58 435.675
VELOX 1 28 Jan 12:30:53 12:34:22 22° 294° (WNW) 12:37:45 145.980
SPROUT 28 Jan 12:31:22 12:35:33 45° 98° (E) 12:39:44 437.525
AIST 1 28 Jan 12:38:53 12:42:49 35° 285° (WNW) 12:46:45
CUBEBUG 1 28 Jan 12:41:58 12:46:03 36° 290° (WNW) 12:50:06 437.445
PCSat 28 Jan 12:42:47 12:46:50 21° 42° (NE) 12:50:59 145.827
PHONESAT 2.4 28 Jan 12:48:15 12:51:50 60° 184° (S) 12:55:27 2401.200-2431.200
Oscar 19 28 Jan 12:49:25 12:54:27 53° 72° (ENE) 12:59:32 437.125/150
SO-50 28 Jan 12:54:10 12:57:33 19° 322° (NW) 13:00:55 436.795
ITAMSAT 1 28 Jan 13:04:04 13:08:20 27° 66° (ENE) 13:12:43 435.822/435.867
SWISSCUBE 28 Jan 13:08:25 13:11:43 19° 91° (E) 13:15:10 437.505
TISAT 1 28 Jan 13:12:06 13:16:23 66° 286° (WNW) 13:20:37 437.305
AIST 2 28 Jan 13:20:20 13:24:05 29° 245° (WSW) 13:27:43 435.215
BEESAT 28 Jan 13:24:01 13:27:53 25° 93° (E) 13:31:51 436.000
ITUPSAT 1 28 Jan 13:27:10 13:31:08 26° 94° (E) 13:35:12 437.325
VERMONT LUNAR 28 Jan 13:33:50 13:37:07 36° 197° (SSW) 13:40:24 437.305
ESTCUBE 1 28 Jan 13:40:14 13:41:17 11° 299° (WNW) 13:42:06 437.505/2401.250
RS-15 28 Jan 13:52:17 14:03:30 65° 49° (NE) 14:15:15 29.354- 29.394
Gurwin Techsat 1B 28 Jan 13:54:13 13:59:20 52° 71° (ENE) 14:04:31 435.225
GONETS M04 28 Jan 13:55:28 14:03:52 54° 269° (W) 14:12:11
KKS-1 28 Jan 14:02:49 14:04:19 12° 88° (E) 14:06:05 437.445
SPROUT 28 Jan 14:08:19 14:11:22 18° 294° (WNW) 14:14:16 437.525
DANDE 28 Jan 14:19:55 14:23:55 16° 53° (NE) 14:27:39 436.750
PCSat 28 Jan 14:25:27 14:30:52 72° 243° (WSW) 14:36:16 145.827
PHONESAT 2.4 28 Jan 14:26:52 14:30:09 31° 200° (SSW) 14:33:26 2401.200-2431.200
Oscar 19 28 Jan 14:30:23 14:34:12 20° 269° (W) 14:37:51 437.125/150
AO-7 28 Jan 14:32:21 14:39:40 37° 59° (ENE) 14:47:09 29.400- 29.500
ITAMSAT 1 28 Jan 14:42:51 14:47:42 39° 263° (W) 14:52:33 435.822/435.867
SWISSCUBE 28 Jan 14:45:17 14:49:54 48° 289° (WNW) 14:54:29 437.505
HORYU 2 28 Jan 14:48:58 14:53:22 55° 73° (ENE) 14:57:48 437.375
CUSAT 1 28 Jan 14:53:24 14:59:04 30° 64° (ENE) 15:03:35 437.405
JAS-2 28 Jan 14:58:29 15:01:07 14° 61° (ENE) 15:03:56 435.910
BEESAT 28 Jan 15:01:28 15:05:52 36° 291° (WNW) 15:10:12 436.000
ITUPSAT 1 28 Jan 15:04:47 15:09:08 35° 291° (WNW) 15:13:27 437.325
VERMONT LUNAR 28 Jan 15:13:22 15:14:41 12° 212° (SSW) 15:15:54 437.305
AUBIESAT-1 28 Jan 15:15:54 15:17:03 12° 97° (E) 15:18:23 437.475
STARS 28 Jan 15:32:46 15:37:15 72° 102° (ESE) 15:41:40 437.465
Gurwin Techsat 1B 28 Jan 15:35:42 15:39:41 21° 269° (W) 15:43:33 435.225
KKS-1 28 Jan 15:37:04 15:41:34 69° 286° (WNW) 15:46:01 437.445
DANDE 28 Jan 16:01:55 16:08:57 88° 263° (W) 16:14:07 436.750
RS-15 28 Jan 16:05:11 16:15:34 41° 250° (WSW) 16:26:06 29.354- 29.394
M-CUBED/EXP-1 PRIME 28 Jan 16:15:00 16:18:20 82° 112° (ESE) 16:21:43 437.505
AO-7 28 Jan 16:24:00 16:32:12 56° 258° (WSW) 16:40:25 29.400- 29.500
HORYU 2 28 Jan 16:27:46 16:30:27 15° 270° (W) 16:32:57 437.375
O/OREOS (USA 219) 28 Jan 16:35:49 16:40:08 49° 108° (ESE) 16:44:31 437.305
CUSAT 1 28 Jan 16:36:27 16:42:15 37° 272° (W) 16:46:40 437.405
JAS-2 28 Jan 16:40:13 16:45:47 78° 256° (WSW) 16:51:01 435.910
Cubesat XI-IV 28 Jan 16:40:40 16:44:07 18° 62° (ENE) 16:47:45 437.490
AUBIESAT-1 28 Jan 16:49:09 16:52:16 38° 293° (WNW) 16:55:25 437.475
CUTE-I 28 Jan 16:59:56 17:04:12 26° 65° (ENE) 17:08:37 437.470
MOZHAYETS 4 28 Jan 17:09:44 17:14:09 47° 98° (E) 17:18:35
STARS 28 Jan 17:11:08 17:13:13 13° 298° (WNW) 17:15:05 437.465
DANDE 28 Jan 17:48:14 17:50:53 12° 284° (WNW) 17:52:57 436.750
PRISM 28 Jan 17:48:51 17:50:01 11° 88° (E) 17:51:24 437.425
SO-50 28 Jan 18:03:08 18:06:10 16° 35° (NE) 18:09:20 436.795
O/OREOS (USA 219) 28 Jan 18:16:36 18:19:53 19° 307° (NW) 18:23:07 437.305
Cubesat XI-IV 28 Jan 18:18:28 18:23:45 66° 258° (WSW) 18:29:06 437.490
CUTE-I 28 Jan 18:39:02 18:44:06 44° 262° (W) 18:49:11 437.470
MOZHAYETS 4 28 Jan 18:47:52 18:51:05 19° 295° (WNW) 18:54:11
STRAND 1 28 Jan 18:48:05 18:52:28 28° 94° (E) 18:56:55 437.568
YUBILEINY 28 Jan 18:59:45 19:06:38 29° 83° (E) 19:13:49 435.215
CUBESAT XI-V 28 Jan 18:59:50 19:04:25 52° 99° (E) 19:09:01 437.345
HO-68 28 Jan 19:10:11 19:15:53 28° 59° (ENE) 19:21:45 435.675
BRITE-PL 28 Jan 19:21:41 19:25:39 24° 64° (ENE) 19:29:58 437.365/2234.400
GOMX 1 28 Jan 19:21:41 19:24:56 18° 62° (ENE) 19:28:29 467.674
PRISM 28 Jan 19:21:55 19:26:02 63° 286° (WNW) 19:30:08 437.425
COMPASS 1 28 Jan 19:34:35 19:36:24 13° 64° (ENE) 19:38:25 437.405
DOVE 4 28 Jan 19:37:17 19:40:34 18° 62° (ENE) 19:44:05 437.250
SO-50 28 Jan 19:42:35 19:47:32 82° 55° (NE) 19:52:28 436.795
CANX-2 28 Jan 19:44:53 19:48:22 25° 69° (ENE) 19:51:56 2200.000
AAUSAT CUBESAT 2 28 Jan 20:00:01 20:03:07 21° 67° (ENE) 20:06:19 437.432
CUTE 1.7 + AOD 2 28 Jan 20:08:33 20:12:33 40° 72° (ENE) 20:16:36 437.475
Oscar 11 28 Jan 20:09:29 20:11:42 14° 64° (ENE) 20:14:06 145.826/435.025
STRAND 1 28 Jan 20:27:02 20:31:45 37° 292° (WNW) 20:36:26 437.568
CUBESAT XI-V 28 Jan 20:38:18 20:41:31 18° 295° (WNW) 20:44:37 437.345
SEEDS 28 Jan 20:39:53 20:44:09 77° 75° (ENE) 20:48:25 437.485
UKube-1 28 Jan 20:43:33 20:46:37 20° 65° (ENE) 20:49:48 .
CUBEBUG 2 28 Jan 20:45:33 20:49:25 26° 67° (ENE) 20:53:24 437.445
YUBILEINY 28 Jan 20:54:19 21:02:55 63° 283° (WNW) 21:11:34 435.215
HO-68 28 Jan 20:56:05 21:03:10 64° 258° (WSW) 21:10:17 435.675
ZACube-1 28 Jan 20:56:23 20:59:57 23° 67° (ENE) 21:03:37 437.345
GOMX 1 28 Jan 20:57:27 21:02:29 68° 259° (W) 21:07:52 467.674
BRITE-PL 28 Jan 20:58:58 21:03:50 48° 263° (W) 21:09:04 437.365/2234.400
DX 1 28 Jan 21:02:42 21:06:31 31° 69° (ENE) 21:10:24 434.975-435.025
CINEMA 3 28 Jan 21:04:38 21:09:30 65° 74° (ENE) 21:14:31 145.822/145.860
HUMSAT D 28 Jan 21:05:38 21:08:08 16° 65° (ENE) 21:10:48 437.325/437.525
COMPASS 1 28 Jan 21:07:29 21:11:42 63° 259° (W) 21:15:53 437.405
FUNcube-1 28 Jan 21:08:09 21:12:05 29° 69° (ENE) 21:16:05 145.935
DOVE 4 28 Jan 21:12:48 21:17:47 65° 259° (W) 21:23:04 437.250
CANX-2 28 Jan 21:20:25 21:24:15 30° 265° (W) 21:28:02 2200.000
AISAT 28 Jan 21:24:43 21:28:03 22° 66° (ENE) 21:31:30 437.250
ISS 28 Jan 21:24:48 21:25:48 11° 131° (SE) 21:26:56 145.825
SO-50 28 Jan 21:25:07 21:27:32 13° 251° (WSW) 21:29:43 436.795
UWE-3 28 Jan 21:26:11 21:30:43 54° 74° (ENE) 21:35:21 435.000/436.395/437.385
ESTCUBE 1 28 Jan 21:28:30 21:29:07 10° 61° (ENE) 21:29:58 437.505/2401.250
DELFI C3 28 Jan 21:33:08 21:37:14 87° 80° (E) 21:41:20 145.870
AAUSAT CUBESAT 2 28 Jan 21:34:42 21:38:36 35° 263° (W) 21:42:29 437.432
Oscar 11 28 Jan 21:43:09 21:47:27 60° 259° (W) 21:51:47 145.826/435.025
CUTE 1.7 + AOD 2 28 Jan 21:45:38 21:48:43 18° 269° (W) 21:51:40 437.475
VELOX 1 28 Jan 21:52:26 21:56:32 39° 70° (ENE) 22:00:42 145.980
CUBEBUG 1 28 Jan 22:03:38 22:06:52 21° 66° (ENE) 22:10:14 437.445
UKube-1 28 Jan 22:18:26 22:22:32 41° 261° (W) 22:26:39 .
50 SAT 28 Jan 22:21:04 22:25:11 72° 76° (ENE) 22:29:20 437.505
CUBEBUG 2 28 Jan 22:21:34 22:25:58 37° 264° (W) 22:30:24 437.445
UNISAT 6 28 Jan 22:24:44 22:28:04 21° 92° (E) 22:31:27 437.425
POLYITAN 1 28 Jan 22:28:41 22:30:46 14° 89° (E) 22:33:04 437.675
BUGSAT 1 28 Jan 22:30:39 22:31:09 10° 87° (E) 22:31:56 437.445
ZACube-1 28 Jan 22:31:49 22:36:08 39° 263° (W) 22:40:28 437.345
TISAT 1 28 Jan 22:33:15 22:34:06 11° 62° (ENE) 22:35:11 437.305
DX 1 28 Jan 22:39:13 22:42:50 25° 266° (W) 22:46:23 434.975-435.025
HUMSAT D 28 Jan 22:39:16 22:43:32 54° 260° (W) 22:47:51 437.325/437.525
CINEMA 3 28 Jan 22:44:14 22:47:15 15° 273° (W) 22:50:05 145.822/145.860
FUNcube-1 28 Jan 22:44:20 22:48:23 30° 265° (W) 22:52:25 145.935
AIST 1 28 Jan 22:44:45 22:49:03 57° 79° (E) 22:53:20
POPSAT HIP 1 28 Jan 22:48:05 22:51:24 22° 93° (E) 22:54:47 437.405
DUCHIFAT 1 28 Jan 22:51:00 22:54:26 23° 93° (E) 22:57:54 145.980
YUBILEINY 28 Jan 22:58:07 23:02:04 13° 308° (NW) 23:05:28 435.215
ISS 28 Jan 22:58:37 23:01:54 90° 323° (NW) 23:05:12 145.825
ANTELSAT 28 Jan 22:59:59 23:04:20 49° 99° (E) 23:08:34 437.575/2403.000
AISAT 28 Jan 23:00:17 23:04:28 39° 263° (W) 23:08:41 437.250
ESTCUBE 1 28 Jan 23:00:53 23:05:23 90° 250° (WSW) 23:09:54 437.505/2401.250
UWE-3 28 Jan 23:04:35 23:07:40 17° 271° (W) 23:10:35 435.000/436.395/437.385
TIGRISAT 28 Jan 23:08:01 23:12:28 59° 100° (E) 23:16:47 435.000
NANOSAT C BR1 28 Jan 23:24:54 23:29:09 55° 100° (E) 23:33:21 145.865
SPROUT 28 Jan 23:26:27 23:30:26 38° 71° (ENE) 23:34:29 437.525
VELOX 1 28 Jan 23:29:56 23:33:18 20° 268° (W) 23:36:35 145.980
QB50P2 28 Jan 23:38:51 23:43:12 81° 102° (ESE) 23:47:29 145.880/145.840
CUBEBUG 1 28 Jan 23:39:00 23:43:04 37° 263° (W) 23:47:08 437.445
QB50P1 28 Jan 23:48:23 23:52:44 81° 283° (WNW) 23:57:02 145.935-145.965
UNISAT 6 29 Jan 00:00:54 00:05:03 37° 290° (WNW) 00:09:04 437.425
POLYITAN 1 29 Jan 00:02:54 00:07:10 56° 287° (WNW) 00:11:22 437.675
BUGSAT 1 29 Jan 00:02:57 00:07:15 73° 285° (WNW) 00:11:30 437.445
TISAT 1 29 Jan 00:05:07 00:09:22 80° 257° (WSW) 00:13:40 437.305
SWISSCUBE 29 Jan 00:15:57 00:19:44 25° 66° (ENE) 00:23:36 437.505
POPSAT HIP 1 29 Jan 00:23:29 00:27:25 34° 290° (WNW) 00:31:18 437.405
AIST 1 29 Jan 00:24:17 00:26:16 13° 274° (W) 00:28:03
DUCHIFAT 1 29 Jan 00:26:30 00:30:22 32° 290° (WNW) 00:34:10 145.980
BEESAT 29 Jan 00:31:24 00:35:34 32° 68° (ENE) 00:39:48 436.000
ITUPSAT 1 29 Jan 00:34:54 00:39:08 33° 69° (ENE) 00:43:26 437.325
ISS 29 Jan 00:36:03 00:38:45 23° 345° (NNW) 00:41:28 145.825
ANTELSAT 29 Jan 00:37:49 00:40:47 17° 296° (WNW) 00:43:34 437.575/2403.000
TIGRISAT 29 Jan 00:46:12 00:48:46 15° 297° (WNW) 00:51:08 435.000
GONETS M04 29 Jan 01:01:13 01:08:58 38° 87° (E) 01:16:50
Oscar 19 29 Jan 01:01:20 01:04:37 17° 90° (E) 01:08:04 437.125/150
NANOSAT C BR1 29 Jan 01:02:05 01:04:38 15° 296° (WNW) 01:07:02 145.865
KKS-1 29 Jan 01:02:09 01:04:13 13° 62° (ENE) 01:06:30 437.445
SPROUT 29 Jan 01:03:31 01:06:44 20° 268° (W) 01:09:51 437.525
O/OREOS (USA 219) 29 Jan 01:06:57 01:09:21 14° 49° (NE) 01:11:55 437.305
QB50P2 29 Jan 01:17:20 01:18:33 11° 298° (WNW) 01:19:31 145.880/145.840
M-CUBED/EXP-1 PRIME 29 Jan 01:32:40 01:34:13 12° 61° (ENE) 01:35:51 437.505
BEESAT 2 29 Jan 01:49:14 01:51:08 13° 110° (ESE) 01:53:13 435.950
SWISSCUBE 29 Jan 01:53:00 01:57:27 38° 263° (W) 02:01:52 437.505
BEESAT 3 29 Jan 02:02:30 02:05:33 21° 113° (ESE) 02:08:43 437.485
AUBIESAT-1 29 Jan 02:04:31 02:07:40 24° 65° (ENE) 02:10:41 437.475
BEESAT 29 Jan 02:09:18 02:13:27 29° 265° (W) 02:17:33 436.000
Gurwin Techsat 1B 29 Jan 02:10:28 02:14:10 19° 90° (E) 02:18:01 435.225
ITUPSAT 1 29 Jan 02:13:02 02:17:06 27° 266° (W) 02:21:06 437.325
ISS 29 Jan 02:13:44 02:16:05 18° 5° (N) 02:18:28 145.825
STARS 29 Jan 02:30:28 02:34:53 69° 74° (ENE) 02:39:21 437.465
KKS-1 29 Jan 02:35:55 02:40:23 69° 258° (WSW) 02:44:53 437.445
Oscar 19 29 Jan 02:39:22 02:44:27 59° 288° (WNW) 02:49:29 437.125/150
O/OREOS (USA 219) 29 Jan 02:44:48 02:49:25 75° 249° (WSW) 02:53:59 437.305
ITAMSAT 1 29 Jan 02:54:22 02:59:36 70° 102° (ESE) 03:04:49 435.822/435.867
GONETS M04 29 Jan 02:57:13 03:05:39 49° 286° (WNW) 03:14:03
M-CUBED/EXP-1 PRIME 29 Jan 03:04:53 03:08:55 60° 254° (WSW) 03:12:38 437.505
AIST 2 29 Jan 03:18:39 03:22:44 48° 118° (ESE) 03:26:54 435.215
BEESAT 2 29 Jan 03:24:48 03:28:54 63° 306° (NW) 03:33:04 435.950
PCSat 29 Jan 03:28:16 03:30:15 12° 104° (ESE) 03:32:34 145.827
DANDE 29 Jan 03:30:18 03:36:27 25° 83° (E) 03:43:08 436.750
AUBIESAT-1 29 Jan 03:39:05 03:42:33 27° 258° (WSW) 03:45:45 437.475
BEESAT 3 29 Jan 03:39:34 03:43:28 40° 310° (NW) 03:47:26 437.485
Gurwin Techsat 1B 29 Jan 03:49:21 03:54:34 56° 288° (WNW) 03:59:44 435.225
JAS-2 29 Jan 03:49:41 03:51:24 12° 87° (E) 03:53:37 435.910
ISS 29 Jan 03:50:08 03:53:16 38° 25° (NNE) 03:56:24 145.825
CUSAT 1 29 Jan 03:59:31 04:07:05 44° 90° (E) 04:14:56 437.405
STARS 29 Jan 04:10:17 04:11:57 12° 272° (W) 04:13:22 437.465
MOZHAYETS 4 29 Jan 04:12:27 04:16:52 49° 73° (ENE) 04:21:19
HORYU 2 29 Jan 04:16:09 04:20:37 81° 285° (WNW) 04:25:03 437.375
RS-15 29 Jan 04:18:30 04:27:39 34° 107° (ESE) 04:37:06 29.354- 29.394
AO-7 29 Jan 04:24:30 04:32:30 49° 100° (E) 04:40:30 29.400- 29.500
ITAMSAT 1 29 Jan 04:35:15 04:38:36 17° 299° (WNW) 04:41:47 435.822/435.867
PRISM 29 Jan 04:41:35 04:42:13 10° 62° (ENE) 04:43:05 437.425
AIST 2 29 Jan 04:58:14 05:01:38 22° 317° (NW) 05:05:00 435.215
BEESAT 2 29 Jan 05:06:50 05:08:02 11° 327° (NNW) 05:09:05 435.950
PCSat 29 Jan 05:07:34 05:12:59 90° 243° (WSW) 05:18:28 145.827
YUBILEINY 29 Jan 05:08:49 05:13:03 15° 54° (NE) 05:17:51 435.215
DANDE 29 Jan 05:10:53 05:19:09 81° 282° (WNW) 05:27:52 436.750
ISS 29 Jan 05:26:44 05:29:44 32° 222° (SW) 05:32:43 145.825
JAS-2 29 Jan 05:31:39 05:37:18 85° 103° (ESE) 05:43:41 435.910
CUSAT 1 29 Jan 05:42:12 05:50:09 48° 289° (WNW) 05:58:08 437.405
MOZHAYETS 4 29 Jan 05:51:21 05:54:27 17° 270° (W) 05:57:22
CUBESAT XI-V 29 Jan 06:04:04 06:08:32 55° 73° (ENE) 06:13:05 437.345
STRAND 1 29 Jan 06:04:41 06:09:28 44° 70° (ENE) 06:14:20 437.568
PRISM 29 Jan 06:13:06 06:17:13 77° 257° (WSW) 06:21:21 437.425
AO-7 29 Jan 06:17:34 06:25:13 41° 299° (WNW) 06:32:44 29.400- 29.500
